[[{"header":{"parameterUnit":"m.s-1","parameterCategory":1,"la1":30.2991,"la2":30.254,"lo1":-89.0895,"lo2":-89.0444,"dy":0.0017,"dx":0.0017,"nx":28,"ny":28,"refTime":"2025-05-25T09:00:00:Z","depth":0,"parameterNumber":2,"parameterNumberName":"U-component_of_WINDS"},"data":[0,0,0,0,0,0,0,0,0,0,0,0,0,0,0,0,0,0,0,0,0,0,0,0,0,0,0,0,0,0,0,0,0,0,0,0,0,0,0,0,0,0,0,0,0,0,0,0,0,0,0,0,0,0,0,0,0,0,-0.8131,-0.8132,0,-0.8147,-0.8147,-0.8147,-0.8128,-0.8127,-0.8127,-0.8126,-0.8144,-0.8145,-0.8147,0,0,0,0,0,0,0,0,0,0,0,0,0,-0.8087,-0.8088,-0.8131,-0.8132,-0.8132,-0.8147,-0.8147,-0.8147,-0.8128,-0.8127,-0.8127,-0.8126,-0.8144,-0.8145,-0.8147,0,0,0,0,0,0,0,0,0,0,0,0,0,-0.8105,-0.8088,-0.8131,-0.8124,-0.8123,-0.8147,-0.8147,-0.8148,-0.8128,-0.8127,-0.8126,-0.8125,-0.8143,-0.8145,-0.8147,-0.8179,0,0,-0.8152,-0.8153,0,0,0,0,0,0,0,0,-0.8104,-0.8106,-0.8125,-0.8124,-0.8124,-0.8134,-0.8138,-0.8158,-0.8129,-0.8127,-0.8126,-0.8125,-0.8142,-0.8144,-0.8149,-0.818,-0.8181,-0.8152,-0.8153,-0.8154,-0.8155,0,0,0,0,0,0,0,-0.8103,-0.8106,-0.8138,-0.8125,-0.8125,-0.8121,-0.8122,-0.8142,-0.814,-0.8127,-0.8125,-0.8127,-0.8142,-0.8148,-0.8149,-0.8181,-0.8152,-0.8154,-0.8155,-0.8155,-0.8239,-0.824,0,0,0,0,0,0,-0.8102,-0.8105,-0.8137,-0.8138,-0.8111,-0.8122,-0.8124,-0.8132,-0.814,-0.814,-0.8128,-0.8126,-0.8145,-0.8147,-0.815,-0.8188,-0.8154,-0.8156,-0.8157,-0.8238,-0.8239,-0.824,0,0,0,0,0,0,-0.8101,-0.8105,-0.8136,-0.8121,-0.8125,-0.8124,-0.8134,-0.8133,-0.8139,-0.8141,-0.8141,-0.8135,-0.8144,-0.8148,-0.8172,-0.8188,-0.8156,-0.8158,-0.8236,-0.8238,-0.824,-0.8264,0,0,0,0,0,0,-0.81,-0.8105,-0.8116,-0.8121,-0.8126,-0.8157,-0.8135,-0.8134,-0.8142,-0.814,-0.8147,-0.8147,-0.8144,-0.8169,-0.8174,-0.819,-0.8159,-0.8235,-0.8237,-0.8239,-0.8262,-0.8267,-0.8271,0,0,0,0,0,-0.8098,-0.8123,-0.8117,-0.8121,-0.814,-0.8158,-0.8161,-0.8156,-0.8143,-0.8155,-0.8157,-0.8147,-0.8186,-0.8172,-0.8177,-0.8194,-0.8234,-0.8236,-0.8239,-0.826,-0.8266,-0.8271,0,0,0,0,0,0,-0.8121,-0.8124,-0.8117,-0.8144,-0.8151,-0.8155,-0.817,-0.8162,-0.8173,-0.8171,-0.8165,-0.8167,-0.8192,-0.8196,-0.818,-0.8226,-0.8208,-0.8212,-0.8222,-0.8228,-0.8232,-0.8231,-0.8161,0,0,0,0,0,-0.8129,-0.8143,-0.8145,-0.8169,-0.8172,-0.8171,-0.8178,-0.8174,-0.8181,-0.8184,-0.8187,-0.8195,-0.821,-0.8219,-0.8232,-0.8263,-0.8264,-0.8277,-0.8281,-0.8285,-0.8288,-0.8304,-0.831,-0.8249,-0.8249,-0.8249,0,0,-0.8146,-0.8149,-0.8158,-0.8173,-0.8178,-0.8193,-0.8173,-0.819,-0.8201,-0.8187,-0.821,-0.8213,-0.8221,-0.8249,-0.8261,-0.8252,-0.8305,-0.8288,-0.8291,-0.8292,-0.8308,-0.8313,-0.8319,-0.8251,-0.8251,-0.825,0,0,-0.8184,-0.8188,-0.8208,-0.8213,-0.8221,-0.8219,-0.8224,-0.823,-0.8231,-0.8253,-0.8243,-0.8257,-0.8281,-0.8287,-0.8294,-0.8335,-0.8326,-0.834,-0.8362,-0.8378,-0.8383,-0.8387,-0.8402,-0.8407,-0.8343,-0.8343,-0.8343,0,-0.8205,-0.8226,-0.822,-0.8237,-0.8244,-0.8231,-0.8252,-0.8257,-0.8269,-0.8275,-0.8264,-0.8295,-0.83,-0.8328,-0.8338,-0.8344,-0.835,-0.8338,-0.8383,-0.8387,-0.8391,-0.8404,-0.841,-0.8344,-0.8344,-0.8344,-0.8344,0,-0.8251,-0.8266,-0.8281,-0.8292,-0.8301,-0.832,-0.8317,-0.8327,-0.8322,-0.8322,-0.8345,-0.8351,-0.8365,-0.8371,-0.8367,-0.84,-0.8394,-0.8383,-0.8365,-0.8398,-0.8411,-0.8416,-0.8347,-0.8346,-0.8346,-0.8345,0,0,-0.8303,-0.831,-0.8316,-0.832,-0.8328,-0.834,-0.8358,-0.8371,-0.838,-0.8389,-0.8404,-0.8425,-0.8415,-0.8423,-0.8419,-0.8433,-0.8465,-0.8421,-0.8421,-0.8429,-0.8502,-0.8509,-0.8515,-0.846,-0.8461,-0.8462,-0.8501,0,-0.8341,-0.8373,-0.8368,-0.8398,-0.8412,-0.84,-0.8417,-0.8423,-0.8424,-0.8437,-0.8438,-0.8453,-0.8439,-0.8443,-0.8457,-0.8459,-0.848,-0.8456,-0.8475,-0.8476,-0.8472,-0.8522,-0.853,-0.8566,-0.8506,-0.8507,-0.8507,0,-0.839,-0.8399,-0.8431,-0.8436,-0.8442,-0.8456,-0.8468,-0.848,-0.8487,-0.8487,-0.8495,-0.8489,-0.8508,-0.849,-0.8517,-0.8501,-0.8509,-0.8511,-0.8512,-0.8513,-0.8493,-0.8524,-0.8578,-0.8583,-0.8515,-0.8515,-0.8514,0,-0.8425,-0.8446,-0.8467,-0.8472,-0.8478,-0.8489,-0.8492,-0.8498,-0.8506,-0.8517,-0.8522,-0.8535,-0.8542,-0.8552,-0.855,-0.8537,-0.8577,-0.8559,-0.8578,-0.8578,-0.8586,-0.8586,-0.8642,-0.8592,-0.8592,-0.8592,-0.8592,0,-0.8468,-0.8488,-0.8483,-0.8496,-0.8518,-0.8513,-0.8535,-0.8537,-0.8543,-0.8557,-0.8548,-0.8561,-0.8558,-0.8571,-0.857,-0.8592,-0.8595,-0.8596,-0.8595,-0.8596,-0.8596,-0.8601,-0.8598,-0.8593,-0.8593,-0.8593,-0.8592,0,-0.851,-0.8508,-0.8531,-0.8535,-0.8536,-0.8552,-0.8556,-0.8569,-0.8569,-0.8586,-0.859,-0.8591,-0.8606,-0.8605,-0.8623,-0.8622,-0.8649,-0.8646,-0.8646,-0.8645,-0.8664,-0.8662,-0.8724,-0.8732,-0.8678,-0.8678,-0.8679,0,-0.8538,-0.8552,-0.8558,-0.8566,-0.857,-0.8583,-0.8591,-0.8587,-0.8596,-0.8605,-0.8617,-0.8631,-0.8643,-0.8668,-0.867,-0.8684,-0.868,-0.8701,-0.8682,-0.8683,-0.868,-0.8679,-0.8681,-0.8705,-0.8706,-0.8706,-0.8706,0,-0.8586,-0.8584,-0.8596,-0.8607,-0.8616,-0.8625,-0.8633,-0.864,-0.8637,-0.8647,-0.8662,-0.8671,-0.8689,-0.8703,-0.8716,-0.872,-0.8713,-0.8712,-0.8717,-0.8719,-0.8718,-0.8718,-0.8656,-0.8711,-0.871,-0.871,-0.871,-0.871,-0.8622,-0.8634,-0.864,-0.8653,-0.8658,-0.8666,-0.8678,-0.8679,-0.8691,-0.8705,-0.8701,-0.8719,-0.8726,-0.8742,-0.8748,-0.8762,-0.8754,-0.8762,-0.8763,-0.8765,-0.8767,-0.8716,-0.8764,-0.8764,-0.8764,-0.8764,-0.8764,0,-0.867,-0.8673,-0.8685,-0.8695,-0.8706,-0.8697,-0.8706,-0.8715,-0.873,-0.8737,-0.8748,-0.8766,-0.878,-0.8783,-0.8797,-0.8807,-0.8804,-0.8811,-0.881,-0.8811,-0.8773,-0.8767,-0.8813,-0.8813,-0.8813,-0.8813,-0.8813,-0.8813,-0.8696,-0.8717,-0.8715,-0.8739,-0.8742,-0.8758,-0.8763,-0.877,-0.8776,-0.8795,-0.8807,-0.8808,-0.8814,-0.8828,-0.8841,-0.8842,-0.8847,-0.8855,-0.8854,-0.8819,-0.8814,-0.8809,-0.8804,-0.8856,-0.8856,-0.8891,-0.8892,-0.8892]},{"header":{"parameterUnit":"m.s-1","parameterCategory":1,"la1":30.2991,"la2":30.254,"lo1":-89.0895,"lo2":-89.0444,"dy":0.0017,"dx":0.0017,"nx":28,"ny":28,"refTime":"2025-05-25T09:00:00:Z","depth":0,"parameterNumber":3,"parameterNumberName":"V-component_of_WINDS"},"data":[0,0,0,0,0,0,0,0,0,0,0,0,0,0,0,0,0,0,0,0,0,0,0,0,0,0,0,0,0,0,0,0,0,0,0,0,0,0,0,0,0,0,0,0,0,0,0,0,0,0,0,0,0,0,0,0,0,0,2.9454,2.9454,0,2.941,2.941,2.9409,2.9438,2.944,2.9441,2.9442,2.9391,2.9389,2.9386,0,0,0,0,0,0,0,0,0,0,0,0,0,2.9561,2.9559,2.9454,2.9454,2.9453,2.941,2.941,2.9409,2.9438,2.944,2.9441,2.9443,2.9392,2.9389,2.9386,0,0,0,0,0,0,0,0,0,0,0,0,0,2.9515,2.9558,2.9454,2.9463,2.9463,2.941,2.941,2.9409,2.9438,2.944,2.9442,2.9444,2.9393,2.9389,2.9386,2.932,0,0,2.9374,2.9372,0,0,0,0,0,0,0,0,2.9518,2.9511,2.9462,2.9462,2.9462,2.9432,2.9428,2.9379,2.9437,2.9447,2.9442,2.9445,2.9403,2.9398,2.9385,2.9318,2.9316,2.9373,2.9371,2.9369,2.9368,0,0,0,0,0,0,0,2.9521,2.9513,2.9437,2.9461,2.9461,2.9468,2.9463,2.9419,2.9414,2.9446,2.9448,2.9443,2.9403,2.9389,2.9384,2.9315,2.9373,2.937,2.9367,2.9366,2.9196,2.9194,0,0,0,0,0,0,2.9524,2.9516,2.9438,2.9435,2.9496,2.9464,2.9459,2.9439,2.9414,2.9413,2.9441,2.9445,2.9395,2.9389,2.9383,2.9307,2.9369,2.9365,2.9363,2.9198,2.9196,2.9193,0,0,0,0,0,0,2.9526,2.9517,2.944,2.9476,2.9467,2.946,2.9438,2.9438,2.9423,2.9411,2.941,2.9428,2.9396,2.9388,2.9337,2.9306,2.9364,2.936,2.9201,2.9197,2.9194,2.9154,0,0,0,0,0,0,2.9529,2.9517,2.9493,2.9475,2.9465,2.9395,2.9436,2.9435,2.9417,2.9421,2.9398,2.9396,2.9397,2.9343,2.9333,2.9301,2.9357,2.9203,2.9199,2.9195,2.9158,2.915,2.9143,0,0,0,0,0,2.9533,2.9481,2.9491,2.9482,2.9434,2.9393,2.9387,2.9391,2.9415,2.939,2.9383,2.9397,2.9311,2.9337,2.9327,2.9293,2.9205,2.92,2.9196,2.9162,2.9152,2.9143,0,0,0,0,0,0,2.9492,2.9479,2.949,2.9432,2.9414,2.9399,2.9367,2.938,2.9353,2.9358,2.9362,2.9357,2.9304,2.9293,2.9323,2.9231,2.9262,2.9254,2.9239,2.923,2.9222,2.9226,2.9354,0,0,0,0,0,2.9476,2.9446,2.9436,2.9385,2.9376,2.9373,2.9355,2.9361,2.9341,2.9333,2.9322,2.9302,2.9271,2.9249,2.922,2.9157,2.9154,2.9129,2.9122,2.9115,2.9109,2.9078,2.9068,2.9177,2.9177,2.9177,0,0,2.9443,2.9433,2.9412,2.9377,2.9363,2.9331,2.9366,2.933,2.9306,2.9327,2.9279,2.927,2.9248,2.9192,2.9166,2.9181,2.9078,2.9109,2.9104,2.9101,2.9072,2.9062,2.9053,2.9174,2.9175,2.9175,0,0,2.9367,2.9355,2.9314,2.9301,2.9282,2.9281,2.9271,2.9255,2.9251,2.9204,2.922,2.9191,2.9137,2.9121,2.9106,2.9029,2.9042,2.9019,2.8979,2.8948,2.894,2.8932,2.8906,2.8897,2.9013,2.9013,2.9012,0,2.9328,2.9281,2.929,2.9254,2.9238,2.926,2.9217,2.9204,2.9175,2.9164,2.9181,2.9117,2.9102,2.9045,2.9026,2.9013,2.9002,2.9021,2.8941,2.8933,2.8926,2.8902,2.8892,2.901,2.901,2.9011,2.9011,0,2.9235,2.9203,2.9171,2.9147,2.9128,2.9088,2.9091,2.907,2.9078,2.9075,2.9028,2.9013,2.8983,2.8969,2.8974,2.8912,2.8923,2.894,2.8972,2.8913,2.889,2.8881,2.9006,2.9007,2.9008,2.9009,0,0,2.9128,2.9113,2.9101,2.9092,2.9075,2.9049,2.9012,2.8985,2.8968,2.8948,2.8917,2.8873,2.8891,2.8874,2.8878,2.8851,2.8794,2.8873,2.8872,2.886,2.8727,2.8715,2.8704,2.8803,2.8801,2.88,2.873,0,2.9053,2.899,2.8998,2.8937,2.8909,2.8931,2.8898,2.8884,2.8882,2.8856,2.8853,2.8822,2.8847,2.8837,2.8812,2.8806,2.8768,2.8812,2.8774,2.8773,2.878,2.8692,2.8677,2.8612,2.8721,2.8719,2.8718,0,2.8955,2.8936,2.8873,2.8864,2.8852,2.8823,2.8801,2.8776,2.8761,2.8762,2.8745,2.8755,2.8718,2.8751,2.87,2.873,2.8716,2.8711,2.8709,2.8706,2.8742,2.8687,2.8591,2.8581,2.8704,2.8705,2.8706,0,2.8886,2.8844,2.8802,2.8793,2.8781,2.8761,2.8754,2.8741,2.8726,2.8706,2.8696,2.8671,2.8657,2.8638,2.8641,2.8664,2.859,2.8623,2.859,2.859,2.8573,2.8574,2.8474,2.8562,2.8562,2.8562,2.8563,0,2.88,2.8761,2.8772,2.8746,2.8704,2.8714,2.8672,2.8668,2.8657,2.8631,2.8647,2.8622,2.8628,2.8603,2.8606,2.8565,2.8558,2.8557,2.8558,2.8556,2.8556,2.8547,2.8552,2.856,2.856,2.8561,2.8561,0,2.8715,2.8721,2.8677,2.8671,2.8668,2.8638,2.8632,2.8608,2.8608,2.8575,2.8568,2.8568,2.854,2.8542,2.8509,2.8511,2.8461,2.8467,2.8467,2.8469,2.8436,2.844,2.8327,2.8313,2.841,2.8409,2.8408,0,2.8661,2.8632,2.8624,2.861,2.8603,2.8578,2.8563,2.8573,2.8557,2.854,2.8518,2.8493,2.8473,2.8427,2.8423,2.8399,2.8405,2.8368,2.8401,2.8401,2.8407,2.8409,2.8407,2.8361,2.836,2.8359,2.8358,0,2.8564,2.8569,2.8548,2.853,2.8513,2.8498,2.8484,2.8471,2.848,2.8461,2.8434,2.8419,2.8388,2.8363,2.8341,2.8334,2.8347,2.8348,2.8339,2.8337,2.8339,2.8339,2.845,2.835,2.8351,2.8351,2.8352,2.8352,2.8493,2.847,2.8462,2.844,2.8432,2.842,2.8398,2.8398,2.8376,2.8354,2.8361,2.8331,2.832,2.8292,2.8283,2.826,2.8274,2.826,2.8257,2.8254,2.8252,2.8343,2.8256,2.8256,2.8256,2.8256,2.8257,0,2.8398,2.8395,2.8375,2.8358,2.8341,2.8358,2.8345,2.8329,2.8304,2.8293,2.8275,2.8246,2.8222,2.8218,2.8196,2.8179,2.8185,2.8172,2.8174,2.8173,2.824,2.825,2.8168,2.8168,2.8168,2.8168,2.8168,2.8168,2.8347,2.831,2.8315,2.8275,2.8272,2.8245,2.8237,2.8226,2.8218,2.8186,2.8168,2.8167,2.8159,2.8138,2.8117,2.8117,2.8108,2.8094,2.8096,2.8159,2.8167,2.8176,2.8186,2.8092,2.8092,2.8031,2.8031,2.803]}]]